Weather History for Durant, OK

Change the Weather History Date:

Monday, January 21, 2013

  Actual Average (KADM) Record (KADM)
Temperature  
Mean Temperature 42 °F -  
Max Temperature 51 °F 51 °F 78 °F (2005)
Min Temperature 32 °F 32 °F 14 °F (2011)
Degree Days  
Heating Degree Days 24    
Moisture  
Dew Point 25 °F    
Average Humidity 53    
Maximum Humidity 93    
Minimum Humidity 33    
Precipitation  
Precipitation 0.00 in - - ()
Sea Level Pressure  
Sea Level Pressure 30.26 in    
Wind  
Wind Speed 11 mph (North)    
Max Wind Speed 22 mph    
Max Gust Speed 29 mph    
Visibility 10 miles    
Events      
Averages and records for this station are not official NWS values.
T = Trace of Precipitation, MM = Missing Value Source: NWS Daily Summary

Daily Weather History Graph

Daily Weather History Graph

Search for Another Location

Airport:

Trip Planner

Search our weather history database for the weather conditions in past years. The results will help you decide how hot, cold, wet, or windy it might be!

Date:

Astronomy

Jan. 21, 2013 Rise Set
Actual Time 7:28 AM CST 5:45 PM CST
Civil Twilight 7:01 AM CST 6:12 PM CST
Nautical Twilight 6:31 AM CST 6:42 PM CST
Astronomical Twilight 6:01 AM CST 7:12 PM CST
Moon 1:27 PM CST 2:57 AM CST
Length of Visible Light 11h 10m
Length of Day
10h 17m
Waxing Gibbous, 75% of the Moon is Illuminated
Jan 21
Waxing Gibbous
Jan 26
Full
Feb 3
Last Quarter
Feb 10
New
Feb 17
First Quarter

Hourly Weather History & Observations

Time (CST) Temp. Windchill Dew Point Humidity Pressure Visibility Wind Dir Wind Speed Gust Speed Precip Events Conditions
12:15 AM 44.6 °F - 42.8 °F 93% 30.15 in 10.0 mi Calm Calm - N/A   Clear
12:35 AM 44.6 °F - 42.8 °F 93% 30.15 in 10.0 mi Calm Calm - N/A   Clear
12:55 AM 44.6 °F 38.1 °F 41.0 °F 87% 30.17 in 10.0 mi NNW 13.8 mph - N/A   Clear
1:15 AM 44.6 °F 37.2 °F 39.2 °F 81% 30.17 in 10.0 mi North 17.3 mph - N/A   Clear
1:35 AM 44.6 °F 37.8 °F 37.4 °F 76% 30.18 in 10.0 mi North 15.0 mph 23.0 mph N/A   Clear
1:55 AM 44.6 °F 36.6 °F 35.6 °F 71% 30.19 in 10.0 mi North 19.6 mph 26.5 mph N/A   Clear
2:15 AM 42.8 °F 34.3 °F 32.0 °F 66% 30.19 in 10.0 mi North 19.6 mph 25.3 mph N/A   Clear
2:35 AM 42.8 °F 34.5 °F 32.0 °F 66% 30.20 in 10.0 mi North 18.4 mph - N/A   Clear
3:15 AM 41.0 °F 32.2 °F 30.2 °F 65% 30.21 in 10.0 mi North 18.4 mph 24.2 mph N/A   Clear
3:35 AM 41.0 °F 32.2 °F 26.6 °F 57% 30.21 in 10.0 mi North 18.4 mph 23.0 mph N/A   Clear
3:55 AM 39.2 °F 30.5 °F 26.6 °F 61% 30.21 in 10.0 mi North 16.1 mph 21.9 mph N/A   Clear
4:15 AM 37.4 °F 27.8 °F 26.6 °F 65% 30.22 in 10.0 mi North 17.3 mph 24.2 mph N/A   Clear
4:35 AM 37.4 °F 26.6 °F 26.6 °F 65% 30.22 in 10.0 mi North 21.9 mph 28.8 mph N/A   Clear
4:55 AM 37.4 °F 26.9 °F 24.8 °F 60% 30.22 in 10.0 mi North 20.7 mph 27.6 mph N/A   Clear
5:15 AM 35.6 °F 24.8 °F 23.0 °F 60% 30.22 in 10.0 mi North 19.6 mph 25.3 mph N/A   Clear
5:55 AM 33.8 °F 22.2 °F 23.0 °F 65% 30.23 in 10.0 mi North 20.7 mph 26.5 mph N/A   Clear
6:15 AM 33.8 °F 23.5 °F 21.2 °F 60% 30.24 in 10.0 mi North 16.1 mph 23.0 mph N/A   Clear
6:35 AM 33.8 °F 23.5 °F 21.2 °F 60% 30.25 in 10.0 mi North 16.1 mph 23.0 mph N/A   Clear
6:55 AM 33.8 °F 22.5 °F 21.2 °F 60% 30.26 in 10.0 mi North 19.6 mph 24.2 mph N/A   Clear
7:15 AM 32.0 °F 21.2 °F 21.2 °F 64% 30.26 in 10.0 mi North 16.1 mph 21.9 mph N/A   Clear
7:35 AM 32.0 °F 21.2 °F 21.2 °F 64% 30.27 in 10.0 mi North 16.1 mph 20.7 mph N/A   Clear
7:55 AM 32.0 °F 21.6 °F 21.2 °F 64% 30.28 in 10.0 mi North 15.0 mph 18.4 mph N/A   Clear
8:15 AM 32.0 °F 20.1 °F 21.2 °F 64% 30.28 in 10.0 mi NW 19.6 mph - N/A   Clear
8:35 AM 32.0 °F 20.1 °F 19.4 °F 60% 30.29 in 10.0 mi North 19.6 mph 24.2 mph N/A   Clear
8:55 AM 33.8 °F 23.2 °F 19.4 °F 56% 30.30 in 10.0 mi North 17.3 mph 28.8 mph N/A   Clear
9:15 AM 33.8 °F 24.8 °F 19.4 °F 56% 30.32 in 10.0 mi North 12.7 mph - N/A   Clear
9:35 AM 35.6 °F 26.6 °F 19.4 °F 52% 30.32 in 10.0 mi North 13.8 mph - N/A   Clear
9:55 AM 37.4 °F 29.8 °F 21.2 °F 52% 30.32 in 10.0 mi North 11.5 mph - N/A   Clear
10:15 AM 37.4 °F 28.9 °F 21.2 °F 52% 30.33 in 10.0 mi NNE 13.8 mph - N/A   Clear
10:35 AM 41.0 °F 34.7 °F 21.2 °F 45% 30.33 in 10.0 mi NE 10.4 mph - N/A   Clear
10:55 AM 42.8 °F 36.6 °F 21.2 °F 42% 30.33 in 10.0 mi North 11.5 mph - N/A   Clear
11:15 AM 42.8 °F 38.6 °F 21.2 °F 42% 30.34 in 10.0 mi NNW 6.9 mph - N/A   Clear
11:35 AM 44.6 °F 39.2 °F 21.2 °F 39% 30.33 in 10.0 mi North 10.4 mph - N/A   Clear
11:55 AM 46.4 °F 41.5 °F 23.0 °F 40% 30.32 in 10.0 mi NE 10.4 mph - N/A   Clear
12:15 PM 46.4 °F 41.1 °F 23.0 °F 40% 30.31 in 10.0 mi NNW 11.5 mph - N/A   Clear
12:35 PM 46.4 °F 41.5 °F 23.0 °F 40% 30.30 in 10.0 mi NNW 10.4 mph - N/A   Clear
12:55 PM 48.2 °F - 23.0 °F 37% 30.30 in 10.0 mi NNE 8.1 mph - N/A   Clear
1:15 PM 50.0 °F - 23.0 °F 35% 30.29 in 10.0 mi NNW 8.1 mph - N/A   Clear
1:35 PM 50.0 °F - 23.0 °F 35% 30.28 in 10.0 mi NNW 10.4 mph - N/A   Clear
1:55 PM 51.8 °F - 23.0 °F 33% 30.27 in 10.0 mi North 6.9 mph - N/A   Clear
2:15 PM 51.8 °F - 23.0 °F 33% 30.27 in 10.0 mi NNE 8.1 mph - N/A   Clear
2:35 PM 51.8 °F - 24.8 °F 35% 30.27 in 10.0 mi NNW 8.1 mph - N/A   Clear
2:55 PM 51.8 °F - 23.0 °F 33% 30.27 in 10.0 mi NE 4.6 mph - N/A   Clear
3:15 PM 51.8 °F - 24.8 °F 35% 30.27 in 10.0 mi North 4.6 mph - N/A   Clear
3:35 PM 51.8 °F - 24.8 °F 35% 30.26 in 10.0 mi North 6.9 mph - N/A   Clear
3:55 PM 51.8 °F - 24.8 °F 35% 30.26 in 10.0 mi North 8.1 mph - N/A   Clear
4:15 PM 51.8 °F - 24.8 °F 35% 30.26 in 10.0 mi North 4.6 mph - N/A   Clear
4:35 PM 51.8 °F - 24.8 °F 35% 30.26 in 10.0 mi NNE 6.9 mph - N/A   Clear
4:55 PM 51.8 °F - 23.0 °F 33% 30.25 in 10.0 mi NNE 4.6 mph - N/A   Clear
5:15 PM 50.0 °F - 24.8 °F 37% 30.25 in 10.0 mi NE 5.8 mph - N/A   Clear
5:35 PM 48.2 °F - 24.8 °F 40% 30.24 in 10.0 mi NNE 4.6 mph - N/A   Clear
5:55 PM 44.6 °F 42.2 °F 24.8 °F 46% 30.25 in 10.0 mi West 4.6 mph - N/A   Clear
6:15 PM 42.8 °F 40.1 °F 24.8 °F 49% 30.25 in 10.0 mi North 4.6 mph - N/A   Clear
6:35 PM 42.8 °F 40.1 °F 23.0 °F 46% 30.25 in 10.0 mi NNW 4.6 mph - N/A   Clear
6:55 PM 42.8 °F 39.3 °F 26.6 °F 53% 30.25 in 10.0 mi WNW 5.8 mph - N/A   Clear
7:15 PM 41.0 °F 36.4 °F 24.8 °F 53% 30.25 in 10.0 mi WNW 6.9 mph - N/A   Clear
7:35 PM 41.0 °F 36.4 °F 24.8 °F 53% 30.26 in 10.0 mi North 6.9 mph - N/A   Clear
7:55 PM 41.0 °F 35.8 °F 23.0 °F 49% 30.26 in 10.0 mi North 8.1 mph - N/A   Clear
8:15 PM 41.0 °F 35.8 °F 23.0 °F 49% 30.26 in 10.0 mi NNE 8.1 mph - N/A   Clear
8:35 PM 41.0 °F 36.4 °F 23.0 °F 49% 30.27 in 10.0 mi NNE 6.9 mph - N/A   Clear
8:55 PM 39.2 °F 33.6 °F 23.0 °F 52% 30.27 in 10.0 mi NNE 8.1 mph - N/A   Clear
9:15 PM 37.4 °F 31.4 °F 23.0 °F 56% 30.26 in 10.0 mi NNE 8.1 mph - N/A   Clear
9:35 PM 37.4 °F 30.8 °F 23.0 °F 56% 30.27 in 10.0 mi NNE 9.2 mph - N/A   Clear
9:55 PM 37.4 °F 30.8 °F 23.0 °F 56% 30.27 in 10.0 mi NNE 9.2 mph - N/A   Clear
10:15 PM 35.6 °F 29.9 °F 23.0 °F 60% 30.28 in 10.0 mi NNE 6.9 mph - N/A   Clear
10:35 PM 35.6 °F 30.7 °F 23.0 °F 60% 30.28 in 10.0 mi NNE 5.8 mph - N/A   Clear
10:55 PM 33.8 °F 28.6 °F 23.0 °F 65% 30.29 in 10.0 mi North 5.8 mph - N/A   Clear
11:15 PM 33.8 °F 26.4 °F 23.0 °F 65% 30.29 in 10.0 mi North 9.2 mph - N/A   Clear
11:35 PM 35.6 °F 29.2 °F 21.2 °F 56% 30.28 in 10.0 mi North 8.1 mph - N/A   Clear
11:55 PM 35.6 °F 29.2 °F 21.2 °F 56% 30.28 in 10.0 mi North 8.1 mph - N/A   Clear